ATLAS 5 CENTAUR DEB, 44651

Orbit data source: Space-Track

ATLAS 5 CENTAUR DEB, 44651 is space debris in HEO originally from a launch on Wed, 17 Oct 2018 UTC launched from the Air Force Eastern Test Range (AFETR). Debris objects in space refer to the collection of defunct objects orbiting the Earth. Examples of debris include non-operational satellites, rocket bodies, and fragments generated from explosions, collisions, or faulty payload assembly.

Loading next visibility...
Identifier
44651, 2018-079M
Orbit
HEO
Country
Flag of USUS
Related business
Flag of USUnited Launch Alliance/Lockheed Martin (US)
Manufacturer
ULA Decatur
Mission
Spacecraft
Bus & Motor
Unknown
Mass
Unknown
Launch date (UTC)
2018-10-17 (7 years ago)
Launch vehicle
Unknown
Launch site
Air Force Eastern Test Range (AFETR)
Object type
Payload
Rocket body
Debris
Shape & HBR
Unknown shape, 1.1 m
Radar Cross Section
RCS unknown

Expand to show TLE details & history
Last TLE update: 1 day ago

TLE from 1 day ago
0 ATLAS 5 CENTAUR DEB
1 44651U 18079M   25353.44552753 -.00000109  00000-0  00000+0 0  9998
2 44651  13.0949  48.5950 4668822 290.6424  26.2471  1.83296670 44789
Epoch: 2025-12-19T10:41Z
TLE epoch observation values (Epoch: 2025-12-19T10:41:33.578Z)
Latitude
0.00004°
Longitude
159.85949°
Altitude
12,594.877 km
Speed
5.281 km/s
True Right ascension
03h 14m 08s
True Declination
0° 00' 00"
Sunlit
Object was in daylight at epoch
Visualization orbit readout
Latitude
Unknown
Longitude
Unknown
Altitude
Unknown
Speed
Unknown
Apparent Right ascension
Unknown
Apparent Declination
Unknown
Sunlit
N/A
Visualization observer readout
Local Sidereal Time
17:37:40
Azimuth
Unknown
Elevation
Unknown
Doppler factor
Unknown
Orbital elements
Apogee altitude
34,995.756 km
Perigee altitude
8,658.625 km
Semi-major axis
28,205.328 km
Eccentricity
0.46688
Inclination
13.0949°
RAAN
48.595°
Arg. of periapsis
290.6424°
True anomaly
69.30426°
Mean anomaly
26.2471°
Eccentric anomaly
45.2423°
Mean motion
0.45819 °/min
Orbital period
785.7 mins
BSTAR
0
Loading maneuver chart data...
Computing Atmospheric mass density...

Documentation

Showing up to 5 results
|